TimeMST,TemperatureF,Dew PointF,Humidity,Sea Level PressureIn,VisibilityMPH,Wind Direction,Wind SpeedMPH,Gust SpeedMPH,PrecipitationIn,Events,Conditions,WindDirDegrees,DateUTC
12:54 AM,9.0,-0.9,64,30.19,10.0,Calm,Calm,-,N/A,,Clear,0,2012-12-11 07:54:00
1:54 AM,7.0,-2.9,64,30.17,10.0,Calm,Calm,-,N/A,,Clear,0,2012-12-11 08:54:00
2:54 AM,8.1,-0.9,67,30.17,10.0,Calm,Calm,-,N/A,,Clear,0,2012-12-11 09:54:00
3:54 AM,5.0,-2.9,70,30.19,10.0,Calm,Calm,-,N/A,,Clear,0,2012-12-11 10:54:00
4:54 AM,6.1,-2.0,69,30.20,10.0,Calm,Calm,-,N/A,,Clear,0,2012-12-11 11:54:00
5:54 AM,5.0,-2.0,73,30.26,10.0,Calm,Calm,-,N/A,,Clear,0,2012-12-11 12:54:00
7:54 AM,5.0,-2.0,73,30.32,10.0,Calm,Calm,-,N/A,,Clear,0,2012-12-11 14:54:00
8:54 AM,19.0,6.1,57,30.28,10.0,ENE,3.5,-,N/A,,Clear,70,2012-12-11 15:54:00
9:54 AM,36.0,14.0,41,30.21,10.0,Calm,Calm,-,N/A,,Clear,0,2012-12-11 16:54:00
10:54 AM,39.0,10.0,30,30.21,10.0,SSE,3.5,-,N/A,,Clear,160,2012-12-11 17:54:00
11:54 AM,44.1,10.9,26,30.16,10.0,South,4.6,-,N/A,,Clear,170,2012-12-11 18:54:00
12:54 PM,45.0,10.9,25,30.13,10.0,SSW,8.1,-,N/A,,Clear,200,2012-12-11 19:54:00
1:54 PM,46.0,10.0,23,30.10,10.0,SW,4.6,-,N/A,,Clear,230,2012-12-11 20:54:00
2:54 PM,45.0,10.9,25,30.09,10.0,WSW,8.1,-,N/A,,Clear,240,2012-12-11 21:54:00
3:54 PM,45.0,10.0,24,30.10,10.0,SW,5.8,-,N/A,,Clear,230,2012-12-11 22:54:00
4:54 PM,42.1,10.0,27,30.11,10.0,WSW,4.6,-,N/A,,Clear,240,2012-12-11 23:54:00
5:54 PM,27.0,6.1,41,30.19,10.0,Calm,Calm,-,N/A,,Clear,0,2012-12-12 00:54:00
6:54 PM,19.9,3.9,50,30.22,10.0,Calm,Calm,-,N/A,,Clear,0,2012-12-12 01:54:00
7:54 PM,19.0,3.0,50,30.23,10.0,Calm,Calm,-,N/A,,Clear,0,2012-12-12 02:54:00
8:54 PM,17.1,1.0,50,30.18,10.0,Calm,Calm,-,N/A,,Clear,0,2012-12-12 03:54:00
9:54 PM,16.0,1.0,52,30.12,10.0,Calm,Calm,-,N/A,,Clear,0,2012-12-12 04:54:00
10:54 PM,14.0,-0.0,54,30.10,10.0,Calm,Calm,-,N/A,,Clear,0,2012-12-12 05:54:00
11:54 PM,10.9,-0.9,59,30.09,10.0,Calm,Calm,-,N/A,,Clear,0,2012-12-12 06:54:00